GW1008 Weather Reports


time (UTC)temp
C
wind
direction
speed
KPH
gust
KPH
rain 1hr
cm
rain 24hr
cm
rain mn
cm
humidity
%
barometer
mb
20260505235514 -2 0 0.0 0.0 0.00 0.13 0.00 84 1018.2
20260505235010 -2 0 0.0 0.0 0.00 0.13 0.00 84 1018.1
20260505234528 -2 0 0.0 0.0 0.00 0.13 0.00 84 1018.0
20260505234010 -2 0 0.0 0.0 0.00 0.13 0.00 84 1018.1
20260505233516 -2 0 0.0 0.0 0.00 0.13 0.00 84 1018.1
20260505233030 -1 0 0.0 0.0 0.00 0.13 0.00 83 1018.2
20260505232512 -1 0 0.0 0.0 0.00 0.13 0.00 83 1018.3
20260505232010 -1 0 0.0 0.0 0.00 0.13 0.00 83 1018.2
20260505231531 -1 0 0.0 0.0 0.00 0.13 0.00 83 1018.2
20260505231010 -1 0 0.0 0.0 0.00 0.13 0.00 83 1018.2
20260505230514 -1 0 0.0 0.0 0.00 0.13 0.00 82 1018.2
20260505230033 -1 0 0.0 0.0 0.00 0.13 0.00 82 1018.4
20260505225513 -1 0 0.0 0.0 0.00 0.13 0.13 82 1018.4
20260505225010 -1 0 0.0 0.0 0.00 0.13 0.13 82 1018.3
20260505224536 -1 0 0.0 0.0 0.00 0.13 0.13 82 1018.3
20260505224013 -1 0 0.0 0.0 0.00 0.13 0.13 83 1018.3
20260505223517 -1 0 0.0 0.0 0.00 0.13 0.13 83 1018.2
20260505223039 -1 0 0.0 0.0 0.00 0.13 0.13 83 1018.3
20260505222510 -1 0 0.0 0.0 0.00 0.13 0.13 82 1018.3
20260505222009 -1 0 0.0 0.0 0.00 0.13 0.13 81 1018.2
20260505221530 -1 0 0.0 0.0 0.00 0.13 0.13 81 1018.3
20260505221008 0 0 0.0 0.0 0.00 0.13 0.13 81 1018.3
20260505220510 0 0 0.0 0.0 0.00 0.13 0.13 82 1018.4
20260505220037 0 0 0.0 0.0 0.00 0.13 0.13 81 1018.4
20260505215512 0 0 0.0 0.0 0.00 0.15 0.13 81 1018.4
20260505215010 0 0 0.0 0.0 0.00 0.15 0.13 80 1018.3
20260505214547 0 0 0.0 0.0 0.00 0.15 0.13 81 1018.2
20260505214010 0 0 0.0 0.0 0.00 0.15 0.13 80 1018.2
20260505213510 0 0 0.0 0.0 0.00 0.15 0.13 80 1018.2
20260505213048 0 0 0.0 0.0 0.00 0.15 0.13 80 1018.2
20260505212510 0 0 0.0 0.0 0.00 0.15 0.13 80 1018.1
20260505212012 0 0 0.0 0.0 0.00 0.15 0.13 80 1018.2
20260505211530 0 0 0.0 0.0 0.00 0.15 0.13 80 1018.2
20260505211010 0 0 0.0 0.0 0.00 0.15 0.13 80 1018.2
20260505210508 0 0 0.0 0.0 0.00 0.15 0.13 80 1018.1
20260505210031 0 0 0.0 0.0 0.00 0.15 0.13 80 1018.1
20260505205515 0 0 0.0 0.0 0.00 0.15 0.13 80 1018.1
20260505205016 0 0 0.0 0.0 0.00 0.15 0.13 79 1018.1
20260505204532 0 0 0.0 0.0 0.00 0.15 0.13 79 1018.0
20260505204010 0 0 0.0 0.0 0.00 0.15 0.13 78 1018.1
20260505203514 0 0 0.0 0.0 0.00 0.15 0.13 77 1018.1
20260505203027 1 0 0.0 0.0 0.00 0.15 0.13 77 1018.0
20260505202509 1 0 0.0 1.6 0.00 0.15 0.13 76 1017.9
20260505202011 1 0 0.0 1.6 0.00 0.15 0.13 76 1018.0
20260505201543 1 0 0.0 4.8 0.00 0.15 0.13 75 1018.0
20260505201008 2 0 0.0 4.8 0.00 0.15 0.13 75 1017.9
20260505200512 2 0 0.0 4.8 0.00 0.15 0.13 73 1017.8
20260505200031 2 0 0.0 0.0 0.00 0.15 0.13 72 1017.8
20260505195511 3 0 0.0 0.0 0.00 0.15 0.13 70 1018.0
20260505195010 3 0 0.0 0.0 0.00 0.15 0.13 69 1017.8
20260505194530 4 0 0.0 0.0 0.00 0.15 0.13 69 1017.8
20260505194017 4 0 0.0 0.0 0.00 0.15 0.13 68 1017.8
20260505193509 5 0 0.0 0.0 0.00 0.15 0.13 67 1017.7
20260505193042 5 0 0.0 0.0 0.00 0.15 0.13 67 1017.7
20260505192511 5 0 0.0 1.6 0.00 0.15 0.13 66 1017.7
20260505192009 5 0 0.0 3.2 0.00 0.15 0.13 65 1017.6
20260505191527 5 0 0.0 3.2 0.00 0.15 0.13 64 1017.6
20260505191014 6 0 0.0 6.4 0.00 0.15 0.13 64 1017.5
20260505190507 6 0 0.0 12.9 0.00 0.15 0.13 63 1017.5
20260505190032 6 0 0.0 12.9 0.00 0.15 0.13 62 1017.5
20260505185515 6 0 0.0 8.0 0.00 0.18 0.13 60 1017.5
20260505185009 6 0 0.0 6.4 0.00 0.18 0.13 59 1017.6
20260505184530 6 0 0.0 4.8 0.00 0.18 0.13 58 1017.5
20260505184010 7 0 0.0 3.2 0.00 0.18 0.13 58 1017.5
20260505183510 7 0 0.0 4.8 0.00 0.18 0.13 57 1017.5
20260505183044 7 0 0.0 4.8 0.00 0.18 0.13 56 1017.6
20260505182509 7 0 0.0 12.9 0.00 0.18 0.13 56 1017.4
20260505182016 7 0 0.0 12.9 0.00 0.18 0.13 55 1017.4
20260505181530 7 0 0.0 12.9 0.00 0.18 0.13 55 1017.4
20260505181016 7 333 0.0 8.0 0.00 0.18 0.13 54 1017.4
20260505180510 7 352 0.0 9.7 0.00 0.18 0.13 54 1017.4
20260505180035 7 350 0.0 11.3 0.00 0.18 0.13 53 1017.4
20260505175512 7 0 0.0 11.3 0.00 0.18 0.13 55 1017.4
20260505175009 8 74 3.2 11.3 0.00 0.18 0.13 53 1017.4
20260505174536 8 67 1.6 8.0 0.00 0.18 0.13 52 1017.4
20260505174010 8 0 0.0 6.4 0.00 0.18 0.13 52 1017.4
20260505173509 8 0 0.0 8.0 0.00 0.18 0.13 52 1017.4
20260505173036 8 323 1.6 8.0 0.00 0.18 0.13 52 1017.4
20260505172508 8 80 1.6 8.0 0.00 0.18 0.13 50 1017.4
20260505172016 7 0 0.0 6.4 0.00 0.18 0.13 52 1017.5
20260505171533 7 0 0.0 8.0 0.00 0.18 0.13 52 1017.4
20260505171011 7 0 0.0 8.0 0.00 0.18 0.13 53 1017.4
20260505170516 7 0 0.0 6.4 0.00 0.18 0.13 55 1017.4
20260505170030 7 59 0.0 19.3 0.00 0.18 0.13 54 1017.4
20260505165512 7 0 0.0 19.3 0.00 0.18 0.13 52 1017.4
20260505165100 7 0 0.0 4.8 0.00 0.18 0.13 53 1017.4
20260505164535 7 0 0.0 14.5 0.00 0.18 0.13 52 1017.3
20260505164008 7 0 0.0 14.5 0.00 0.18 0.13 53 1017.4
20260505163508 7 349 1.6 14.5 0.00 0.18 0.13 52 1017.5
20260505163030 7 37 1.6 8.0 0.00 0.18 0.13 54 1017.4
20260505162508 7 0 0.0 4.8 0.00 0.18 0.13 55 1017.5
20260505162007 7 0 0.0 8.0 0.00 0.18 0.13 57 1017.5
20260505161528 7 0 0.0 8.0 0.00 0.18 0.13 60 1017.5
20260505161008 7 91 1.6 9.7 0.00 0.18 0.13 58 1017.5
20260505160511 7 5 0.0 12.9 0.00 0.18 0.13 58 1017.5
20260505153031 7 0 0.0 12.9 0.00 0.18 0.13 57 1017.6
20260505152512 7 319 1.6 12.9 0.00 0.18 0.13 56 1017.6
20260505152018 7 0 0.0 12.9 0.00 0.18 0.13 58 1017.6
20260505151528 7 0 0.0 11.3 0.00 0.18 0.13 57 1017.6
20260505151013 7 0 0.0 8.0 0.00 0.18 0.13 58 1017.6
20260505150517 7 0 0.0 6.4 0.00 0.18 0.13 58 1017.6
20260505140514 7 0 0.0 16.1 0.00 0.18 0.13 64 1017.4
20260505125007 7 0 0.0 8.0 0.00 0.18 0.13 66 1017.2
20260505124528 7 60 1.6 11.3 0.00 0.18 0.13 68 1017.2
20260505124011 7 0 3.2 11.3 0.00 0.18 0.13 67 1017.2
20260505123511 7 0 0.0 6.4 0.00 0.18 0.13 68 1017.1
20260505123044 7 0 0.0 8.0 0.00 0.18 0.13 74 1017.2
20260505122508 7 0 1.6 8.0 0.00 0.18 0.13 73 1017.3
20260505122009 7 0 0.0 12.9 0.00 0.18 0.13 74 1017.5
20260505121534 6 0 1.6 14.5 0.00 0.18 0.13 76 1017.5
20260505121011 6 0 1.6 14.5 0.00 0.18 0.13 74 1017.4
20260505120515 6 0 1.6 12.9 0.00 0.18 0.13 75 1017.5
20260505120041 6 82 0.0 19.3 0.00 0.18 0.13 73 1017.5
20260505115512 7 305 3.2 19.3 0.00 0.18 0.13 70 1017.3
20260505115016 7 0 3.2 19.3 0.00 0.18 0.13 71 1017.2
20260505114541 7 0 0.0 19.3 0.00 0.18 0.13 68 1017.1
20260505114010 7 32 0.0 19.3 0.00 0.18 0.13 70 1017.2
20260505113508 7 339 1.6 12.9 0.00 0.18 0.13 70 1017.1
20260505113029 7 342 1.6 14.5 0.00 0.18 0.13 73 1017.2
20260505112511 7 74 0.0 14.5 0.00 0.18 0.13 74 1017.2
20260505112011 7 73 0.0 12.9 0.00 0.18 0.13 77 1017.2
20260505111528 6 0 1.6 14.5 0.00 0.18 0.13 77 1017.2
20260505111011 6 0 3.2 14.5 0.00 0.18 0.13 78 1017.2
20260505110511 5 83 0.0 8.0 0.00 0.18 0.13 81 1017.3
20260505102010 6 0 0.0 19.3 0.03 0.18 0.13 73 1017.1
20260505101526 6 280 0.0 17.7 0.03 0.18 0.13 72 1017.1
20260505101009 6 341 3.2 17.7 0.03 0.18 0.13 73 1016.9
20260505100512 6 336 3.2 17.7 0.03 0.18 0.13 73 1017.1
20260505100031 6 326 1.6 17.7 0.03 0.18 0.13 75 1017.0
20260505095510 6 34 1.6 12.9 0.03 0.18 0.13 78 1016.9
20260505095015 6 0 1.6 9.7 0.03 0.18 0.13 82 1016.7
20260505094530 5 0 0.0 6.4 0.00 0.15 0.10 84 1016.9
20260505094010 5 0 0.0 20.9 0.00 0.15 0.10 81 1016.8
20260505093511 5 59 0.0 20.9 0.00 0.15 0.10 80 1016.8
20260505093035 5 350 6.4 20.9 0.00 0.15 0.10 78 1016.8
20260505092512 6 0 3.2 16.1 0.00 0.15 0.10 77 1016.6
20260505092013 6 348 0.0 12.9 0.00 0.15 0.10 77 1016.7
20260505091540 5 0 0.0 12.9 0.00 0.15 0.10 78 1016.6
20260505091012 5 62 1.6 12.9 0.00 0.15 0.10 79 1016.6
20260505090509 5 352 0.0 16.1 0.00 0.15 0.10 80 1016.6
20260505090043 5 0 1.6 16.1 0.00 0.15 0.10 81 1016.4
20260505085510 5 349 1.6 16.1 0.00 0.15 0.10 80 1016.4
20260505085012 5 69 1.6 17.7 0.00 0.15 0.10 81 1016.2
20260505084528 5 57 3.2 22.5 0.03 0.15 0.10 81 1016.2
20260505084012 5 323 0.0 22.5 0.03 0.15 0.10 83 1016.1
20260505083517 5 0 1.6 22.5 0.03 0.15 0.10 84 1016.1
20260505083028 5 335 3.2 20.9 0.03 0.15 0.10 84 1016.1
20260505082511 5 0 3.2 17.7 0.05 0.15 0.10 85 1016.2
20260505082008 4 336 1.6 16.1 0.05 0.15 0.10 86 1016.1
20260505081538 4 360 1.6 12.9 0.05 0.15 0.10 87 1016.0
20260505081009 4 0 0.0 12.9 0.05 0.15 0.10 87 1016.1
20260505080509 4 0 0.0 12.9 0.05 0.15 0.10 86 1016.1
20260505080046 4 77 1.6 12.9 0.05 0.15 0.10 86 1016.0
20260505075511 4 0 0.0 11.3 0.08 0.15 0.10 86 1015.9
20260505075011 5 82 1.6 19.3 0.08 0.15 0.10 86 1015.8
20260505074530 5 0 1.6 19.3 0.08 0.13 0.08 86 1015.7
20260505074011 5 81 0.0 14.5 0.08 0.13 0.08 86 1015.7
20260505073512 5 0 0.0 14.5 0.08 0.13 0.08 86 1015.6
20260505073034 5 92 1.6 16.1 0.08 0.13 0.08 85 1015.5
20260505072509 5 71 3.2 16.1 0.05 0.10 0.05 85 1015.5
20260505072015 5 69 1.6 14.5 0.05 0.10 0.05 85 1015.4
20260505071529 5 0 0.0 9.7 0.05 0.10 0.05 85 1015.3
20260505071009 5 0 0.0 9.7 0.05 0.10 0.05 85 1015.4
20260505070511 5 16 0.0 4.8 0.05 0.10 0.05 84 1015.3
20260505070028 5 0 0.0 9.7 0.03 0.08 0.03 83 1015.2
20260505065510 5 0 0.0 9.7 0.03 0.08 0.03 82 1015.1
20260505065011 5 41 0.0 8.0 0.03 0.08 0.03 82 1015.0
20260505064529 5 302 0.0 11.3 0.00 0.05 0.00 82 1015.0
20260505064013 5 0 0.0 11.3 0.00 0.05 0.00 81 1015.0
20260505063518 5 293 0.0 11.3 0.00 0.05 0.00 81 1014.9
20260505063028 5 0 0.0 8.0 0.00 0.05 0.00 81 1014.9
20260505062512 5 0 0.0 3.2 0.00 0.05 0.00 82 1014.7
20260505062012 5 0 0.0 3.2 0.00 0.05 0.00 81 1014.7
20260505061529 5 0 0.0 12.9 0.00 0.05 0.00 81 1014.5
20260505061015 5 0 0.0 12.9 0.00 0.05 0.00 80 1014.5
20260505060511 5 0 0.0 11.3 0.00 0.05 0.00 80 1014.4
20260505060029 5 0 0.0 14.5 0.00 0.05 0.00 81 1014.3
20260505055515 5 300 1.6 14.5 0.00 0.05 0.00 81 1014.2
20260505055012 5 0 1.6 9.7 0.00 0.05 0.00 81 1014.2
20260505054530 5 274 0.0 9.7 0.00 0.05 0.00 83 1014.0
20260505054011 5 0 0.0 3.2 0.00 0.05 0.00 83 1014.0
20260505053511 5 0 0.0 1.6 0.00 0.05 0.00 84 1014.0
20260505053030 4 0 0.0 9.7 0.00 0.05 0.00 84 1014.0
20260505052517 3 265 0.0 9.7 0.00 0.05 0.00 84 1014.0
20260505052010 3 0 0.0 0.0 0.00 0.05 0.00 84 1014.1
20260505051528 3 0 0.0 3.2 0.00 0.05 0.00 85 1014.0
20260505051011 3 0 0.0 3.2 0.00 0.05 0.00 85 1014.0
20260505050513 3 0 0.0 3.2 0.00 0.05 0.00 85 1014.0
20260505041545 3 0 0.0 0.0 0.00 0.05 0.00 85 1013.8
20260505041011 3 0 0.0 0.0 0.00 0.05 0.00 83 1013.8
20260505040513 3 0 0.0 0.0 0.00 0.05 0.00 82 1013.9
20260505040030 3 0 0.0 0.0 0.00 0.05 0.00 81 1013.8
20260505035511 3 0 0.0 0.0 0.00 0.05 0.00 82 1013.8
20260505035011 3 0 0.0 0.0 0.00 0.05 0.00 81 1013.8
20260505034528 4 0 0.0 0.0 0.00 0.05 0.00 81 1013.8
20260505034013 4 0 0.0 0.0 0.00 0.05 0.00 82 1013.7
20260505033509 4 0 0.0 0.0 0.00 0.05 0.00 81 1013.7
20260505033030 5 0 0.0 0.0 0.00 0.05 0.00 81 1013.6
20260505032514 5 0 0.0 0.0 0.00 0.05 0.00 82 1013.6
20260505032011 5 0 0.0 0.0 0.00 0.05 0.00 82 1013.7
20260505031536 5 0 0.0 0.0 0.00 0.05 0.00 82 1013.8
20260505031011 5 0 0.0 0.0 0.00 0.05 0.00 83 1013.7
20260505030512 5 0 0.0 0.0 0.00 0.05 0.00 83 1013.7
20260505030035 5 0 0.0 0.0 0.00 0.05 0.00 83 1013.6
20260505025511 5 0 0.0 0.0 0.00 0.05 0.00 83 1013.7
20260505025011 5 0 0.0 0.0 0.00 0.05 0.00 83 1013.7
20260505024530 5 0 0.0 0.0 0.00 0.05 0.00 83 1013.7
20260505024013 5 0 0.0 0.0 0.00 0.05 0.00 84 1013.6
20260505023511 5 0 0.0 1.6 0.00 0.05 0.00 84 1013.7
20260505023036 5 0 0.0 1.6 0.00 0.05 0.00 84 1013.8
20260505022515 5 0 0.0 1.6 0.00 0.05 0.00 84 1013.8
20260505022011 5 0 0.0 4.8 0.00 0.05 0.00 84 1013.8
20260505021529 5 0 0.0 6.4 0.00 0.05 0.00 84 1013.8
20260505021008 5 287 0.0 6.4 0.00 0.05 0.00 85 1013.9
20260505020511 6 0 0.0 6.4 0.00 0.05 0.00 85 1013.9
20260505020034 5 0 0.0 3.2 0.00 0.05 0.00 86 1013.8
20260505015517 5 0 0.0 4.8 0.00 0.05 0.00 87 1013.9
20260505015011 5 287 0.0 4.8 0.00 0.05 0.00 87 1013.9
20260505014529 5 0 0.0 4.8 0.00 0.05 0.00 87 1013.8
20260505014011 5 0 0.0 0.0 0.00 0.05 0.00 87 1013.8
20260505013511 5 0 0.0 0.0 0.00 0.05 0.00 87 1013.6
20260505013028 5 0 0.0 0.0 0.00 0.05 0.00 88 1013.6
20260505012514 5 0 0.0 0.0 0.00 0.05 0.00 88 1013.6
20260505012031 5 0 0.0 0.0 0.00 0.05 0.00 88 1013.7
20260505011530 5 0 0.0 0.0 0.00 0.05 0.00 87 1013.7
20260505011011 5 0 0.0 0.0 0.00 0.05 0.00 87 1013.7
20260505010508 4 0 0.0 0.0 0.00 0.05 0.00 86 1013.7
20260505010026 4 0 0.0 0.0 0.00 0.05 0.00 86 1013.6
20260505005511 4 0 0.0 0.0 0.00 0.05 0.00 86 1013.5
20260505005010 4 0 0.0 0.0 0.00 0.05 0.00 86 1013.4
20260505004536 4 0 0.0 0.0 0.00 0.05 0.00 85 1013.5
20260505004007 4 0 0.0 0.0 0.00 0.05 0.00 84 1013.5
20260505003512 4 0 0.0 0.0 0.00 0.05 0.00 84 1013.5
20260505003029 5 0 0.0 0.0 0.00 0.05 0.00 85 1013.5
20260505002510 4 0 0.0 0.0 0.00 0.05 0.00 84 1013.5
20260505002008 5 0 0.0 0.0 0.00 0.05 0.00 84 1013.5
20260505001527 5 0 0.0 0.0 0.00 0.05 0.00 84 1013.5
20260505001010 5 0 0.0 0.0 0.00 0.05 0.00 84 1013.4
20260505000509 5 0 0.0 0.0 0.00 0.05 0.00 84 1013.4
20260505000031 5 0 0.0 0.0 0.00 0.05 0.00 84 1013.5